Find Local Weather

World > North America > United States > Indiana

Michigan City, Indiana Regional Weather

Lat: 41.71N, Lon: 86.88W
Wx Zone: INZ003
Feedback
Expires:201811162100;;405365
ASUS43 KIND 162009
RWRIN 

WEATHER ROUNDUP FOR INDIANA
NATIONAL WEATHER SERVICE INDIANAPOLIS IN
300 PM EST FRI NOV 16 2018

NOTE: "FAIR" INDICATES FEW OR NO CLOUDS BELOW 12,000 FEET WITH NO
SIGNIFICANT WEATHER AND/OR OBSTRUCTIONS TO VISIBILITY.

* - STATION DOES NOT REPORT WEATHER SUCH AS PRECIPITATION OR FOG.

+ - STATION NOT QUALITY CONTROLLED BY THE NATIONAL WEATHER SERVICE.
    USE DATA WITH CAUTION...ESPECIALLY DEWPOINT AND RELATIVE
    HUMIDITY OBSERVATIONS.


INZ001>003-010>013-019-020-162100-
NORTHWEST INDIANA
  
CITY           SKY/WX    TMP DP  RH WIND       PRES   REMARKS
GARY /AIRPORT/ CLOUDY    41  32  70 NW12G23   30.01R                  
KNOX *+        CLOUDY    37  32  81 NW9       29.99R WCI  31          
LA PORTE +     CLOUDY    38  32  78 W7G16     29.99R WCI  32          
MICHIGAN CITY+ CLOUDY    37  30  75 NW10      29.99R WCI  30          
MONTICELLO +   CLOUDY    39  34  82 W9        30.01R WCI  33          
RENSSELAER +   CLOUDY    39  34  81 W10G17    30.02R WCI  32          
VALPARAISO     CLOUDY    41  31  67 NW9       30.00R                  

$$


SKY/WX - Weather  TMP - Temperature  DP - Dew Point  RH - Relative Humidity
WIND - Wind Direction/Speed PRES - Barometric Pressure